[[{"header":{"parameterUnit":"m.s-1","parameterCategory":1,"la1":30.2991,"la2":30.254,"lo1":-89.0895,"lo2":-89.0444,"dy":0.0017,"dx":0.0017,"nx":28,"ny":28,"refTime":"2025-05-18T09:00:00:Z","depth":0,"parameterNumber":2,"parameterNumberName":"U-component_of_WINDS"},"data":[0,0,0,0,0,0,0,0,0,0,0,0,0,0,0,0,0,0,0,0,0,0,0,0,0,0,0,0,0,0,0,0,0,0,0,0,0,0,0,0,0,0,0,0,0,0,0,0,0,0,0,0,0,0,0,0,0,0,1.1979,1.198,0,1.2071,1.2072,1.2073,1.2046,1.2044,1.2042,1.204,1.2137,1.2141,1.2145,0,0,0,0,0,0,0,0,0,0,0,0,0,1.178,1.1784,1.1979,1.198,1.1981,1.2071,1.2072,1.2073,1.2046,1.2044,1.2041,1.2039,1.2135,1.214,1.2146,0,0,0,0,0,0,0,0,0,0,0,0,0,1.1869,1.1785,1.1978,1.1978,1.1979,1.2071,1.2072,1.2074,1.2047,1.2044,1.2041,1.2038,1.2133,1.214,1.2146,1.2245,0,0,1.2166,1.2169,0,0,0,0,0,0,0,0,1.1864,1.1876,1.1977,1.1978,1.1979,1.2044,1.2037,1.2131,1.2047,1.2021,1.204,1.2037,1.2108,1.2117,1.214,1.2249,1.2253,1.2167,1.2171,1.2174,1.2176,0,0,0,0,0,0,0,1.1858,1.1872,1.2015,1.1978,1.198,1.1974,1.1983,1.2055,1.208,1.2023,1.2021,1.2032,1.2108,1.2134,1.2142,1.2255,1.2167,1.2173,1.2177,1.2179,1.2448,1.2451,0,0,0,0,0,0,1.185,1.1867,1.2012,1.2018,1.1913,1.198,1.199,1.2026,1.2079,1.2084,1.2035,1.2031,1.2124,1.2135,1.2146,1.2263,1.2174,1.218,1.2184,1.2444,1.2448,1.2452,0,0,0,0,0,0,1.1846,1.1864,1.2009,1.1942,1.196,1.1986,1.2027,1.2029,1.2055,1.2088,1.2092,1.2057,1.2123,1.2137,1.222,1.2266,1.2183,1.2189,1.2441,1.2446,1.245,1.2499,0,0,0,0,0,0,1.1841,1.1862,1.1899,1.1943,1.1964,1.2081,1.203,1.2033,1.2066,1.2062,1.2109,1.2114,1.2121,1.221,1.2226,1.2274,1.2194,1.2437,1.2443,1.2448,1.2494,1.2505,1.2515,0,0,0,0,0,1.1834,1.191,1.1901,1.1919,1.2011,1.2083,1.2095,1.2101,1.207,1.2108,1.2129,1.2113,1.2259,1.2219,1.2237,1.2287,1.2434,1.2441,1.2448,1.2489,1.2503,1.2515,0,0,0,0,0,0,1.1872,1.1916,1.1907,1.2,1.2038,1.2079,1.2126,1.2116,1.2164,1.2158,1.2164,1.2175,1.226,1.2282,1.2237,1.2384,1.2342,1.2353,1.2367,1.238,1.2391,1.2383,1.2199,0,0,0,0,0,1.1891,1.1946,1.1982,1.2061,1.208,1.21,1.2132,1.2133,1.2173,1.219,1.2217,1.2257,1.2311,1.2347,1.2399,1.2497,1.2507,1.254,1.2551,1.256,1.2569,1.2621,1.2636,1.2475,1.2475,1.2475,0,0,1.1932,1.1963,1.1997,1.2069,1.2099,1.2156,1.2114,1.2176,1.2218,1.2199,1.2279,1.23,1.2345,1.2436,1.2477,1.2457,1.2616,1.2569,1.2576,1.258,1.263,1.2645,1.2659,1.248,1.2479,1.2479,0,0,1.2034,1.2064,1.2132,1.2162,1.2207,1.222,1.2237,1.2279,1.2292,1.2372,1.2358,1.2409,1.2504,1.2536,1.2565,1.2679,1.2666,1.2696,1.2752,1.2803,1.2815,1.2827,1.2866,1.2881,1.2706,1.2706,1.2706,0,1.2079,1.2163,1.2168,1.2231,1.2263,1.2248,1.2317,1.2346,1.2407,1.2429,1.2406,1.2523,1.2553,1.265,1.2678,1.2702,1.2721,1.269,1.2813,1.2824,1.2835,1.2873,1.2888,1.2709,1.2709,1.2708,1.2708,0,1.2215,1.2274,1.2324,1.2382,1.2419,1.2485,1.25,1.2538,1.2536,1.2551,1.2633,1.2668,1.2726,1.275,1.2749,1.2847,1.2832,1.2811,1.2768,1.2853,1.2889,1.2904,1.2714,1.2713,1.2712,1.2711,0,0,1.2344,1.2403,1.2421,1.2446,1.2495,1.2541,1.2607,1.2663,1.2695,1.2737,1.2792,1.2872,1.2852,1.2885,1.2888,1.2933,1.302,1.2906,1.2907,1.2924,1.3128,1.3143,1.316,1.3012,1.3014,1.3017,1.3124,0,1.2449,1.2562,1.2569,1.2672,1.2726,1.2713,1.2769,1.2806,1.2822,1.2871,1.2889,1.2945,1.2915,1.2935,1.2979,1.3,1.306,1.2992,1.3062,1.3064,1.3049,1.3178,1.3194,1.3294,1.3138,1.3141,1.3142,0,1.2587,1.2632,1.274,1.2781,1.2804,1.2855,1.2906,1.2953,1.2994,1.3003,1.3039,1.3036,1.3103,1.3059,1.3151,1.3104,1.3133,1.3148,1.3152,1.3158,1.3107,1.3186,1.3326,1.334,1.3164,1.3163,1.3161,0,1.2667,1.2756,1.2832,1.2855,1.2904,1.294,1.2962,1.3001,1.3034,1.308,1.3101,1.3155,1.3184,1.3226,1.3236,1.3203,1.3328,1.3285,1.3337,1.3336,1.3362,1.336,1.3507,1.3384,1.3384,1.3383,1.3383,0,1.2783,1.285,1.2869,1.2915,1.2989,1.2996,1.3069,1.309,1.3124,1.3174,1.3167,1.3214,1.3227,1.3277,1.3286,1.336,1.3374,1.3383,1.3384,1.3382,1.3381,1.34,1.3393,1.3387,1.3386,1.3386,1.3385,0,1.2885,1.2901,1.2982,1.3022,1.3034,1.3087,1.3121,1.3166,1.3181,1.3245,1.3261,1.3285,1.3344,1.3359,1.3429,1.3436,1.3523,1.3518,1.3508,1.3508,1.3558,1.3552,1.3721,1.3743,1.3607,1.3608,1.3609,0,1.2957,1.3008,1.3053,1.3086,1.3109,1.3163,1.3196,1.3206,1.3241,1.3292,1.333,1.3388,1.3434,1.3528,1.3552,1.3606,1.3602,1.3658,1.361,1.3606,1.3601,1.3597,1.3602,1.3666,1.3667,1.3669,1.3669,0,1.3082,1.3088,1.3136,1.3188,1.3228,1.3269,1.3308,1.3336,1.3351,1.3391,1.345,1.3486,1.3558,1.3614,1.3668,1.3692,1.3683,1.3685,1.3699,1.3697,1.3688,1.3692,1.3531,1.368,1.3679,1.3678,1.3678,1.3677,1.3171,1.3214,1.3253,1.3307,1.3338,1.3375,1.3418,1.3439,1.3488,1.3546,1.3549,1.3613,1.3653,1.3725,1.3751,1.3802,1.3785,1.3807,1.3812,1.3816,1.382,1.3682,1.3812,1.3812,1.3812,1.3811,1.3811,0,1.3294,1.3318,1.3368,1.3423,1.3466,1.3454,1.3497,1.3533,1.3589,1.3627,1.3672,1.374,1.3796,1.3824,1.3879,1.3914,1.3911,1.3928,1.3924,1.393,1.3832,1.3814,1.3929,1.3929,1.3929,1.3929,1.3929,1.3929,1.3363,1.3436,1.3446,1.3535,1.3559,1.3621,1.3646,1.368,1.371,1.3786,1.3831,1.3849,1.3883,1.3941,1.3991,1.3998,1.4018,1.4036,1.4041,1.3949,1.3937,1.3925,1.3908,1.4041,1.4041,1.4134,1.4135,1.4135]},{"header":{"parameterUnit":"m.s-1","parameterCategory":1,"la1":30.2991,"la2":30.254,"lo1":-89.0895,"lo2":-89.0444,"dy":0.0017,"dx":0.0017,"nx":28,"ny":28,"refTime":"2025-05-18T09:00:00:Z","depth":0,"parameterNumber":3,"parameterNumberName":"V-component_of_WINDS"},"data":[0,0,0,0,0,0,0,0,0,0,0,0,0,0,0,0,0,0,0,0,0,0,0,0,0,0,0,0,0,0,0,0,0,0,0,0,0,0,0,0,0,0,0,0,0,0,0,0,0,0,0,0,0,0,0,0,0,0,2.1787,2.1787,0,2.1805,2.1805,2.1805,2.1732,2.173,2.1728,2.1726,2.1745,2.1747,2.175,0,0,0,0,0,0,0,0,0,0,0,0,0,2.169,2.1693,2.1787,2.1787,2.1787,2.1805,2.1805,2.1805,2.1732,2.173,2.1727,2.1725,2.1744,2.1747,2.175,0,0,0,0,0,0,0,0,0,0,0,0,0,2.1723,2.1693,2.1787,2.1753,2.175,2.1805,2.1805,2.1805,2.1733,2.173,2.1726,2.1723,2.1743,2.1747,2.1751,2.1839,0,0,2.1762,2.1764,0,0,0,0,0,0,0,0,2.1721,2.1726,2.1758,2.1756,2.1752,2.1763,2.1778,2.1816,2.1734,2.1739,2.1725,2.1722,2.1754,2.1756,2.1767,2.184,2.184,2.1762,2.1765,2.1766,2.1767,0,0,0,0,0,0,0,2.1719,2.1725,2.1794,2.1758,2.1755,2.1737,2.1738,2.1785,2.1764,2.1739,2.1733,2.1736,2.1751,2.1763,2.1767,2.1841,2.1762,2.1766,2.1768,2.177,2.1985,2.1988,0,0,0,0,0,0,2.1721,2.1724,2.1793,2.1794,2.1728,2.1741,2.1743,2.1763,2.1764,2.1761,2.1739,2.1733,2.1758,2.1762,2.1767,2.1869,2.1766,2.177,2.1772,2.1982,2.1986,2.199,0,0,0,0,0,0,2.1719,2.1728,2.1793,2.1758,2.1765,2.1747,2.177,2.1765,2.1776,2.1764,2.176,2.1755,2.1756,2.1762,2.1821,2.1869,2.1772,2.1775,2.1978,2.1983,2.1988,2.2075,0,0,0,0,0,0,2.1717,2.1728,2.1761,2.1759,2.1767,2.1847,2.1773,2.1767,2.1783,2.1775,2.1778,2.1775,2.1754,2.1816,2.1825,2.1872,2.1778,2.1973,2.198,2.1986,2.2068,2.2083,2.2096,0,0,0,0,0,2.1714,2.1786,2.1763,2.1772,2.1808,2.1849,2.1854,2.1827,2.1787,2.182,2.1812,2.1775,2.1862,2.1822,2.1832,2.1882,2.197,2.1978,2.1986,2.2062,2.208,2.2095,0,0,0,0,0,0,2.1795,2.1785,2.176,2.1833,2.1843,2.1837,2.1878,2.1848,2.1869,2.1861,2.1827,2.1829,2.1894,2.1893,2.1849,2.1966,2.1909,2.1919,2.1964,2.1981,2.1995,2.1993,2.1781,0,0,0,0,0,2.1821,2.1855,2.1845,2.1911,2.1916,2.1897,2.1914,2.1893,2.1901,2.1905,2.1901,2.1911,2.194,2.1961,2.1987,2.2068,2.2067,2.2106,2.212,2.2131,2.2141,2.2182,2.2199,2.2015,2.2015,2.2015,0,0,2.1876,2.1875,2.1898,2.1927,2.1932,2.1968,2.1901,2.1942,2.1969,2.1911,2.1967,2.1964,2.1973,2.2043,2.2074,2.2045,2.2191,2.2141,2.2151,2.2154,2.2192,2.2209,2.2225,2.202,2.202,2.2019,0,0,2.1994,2.1997,2.2052,2.2057,2.2065,2.2051,2.2065,2.2063,2.2059,2.2114,2.2072,2.2103,2.2155,2.2162,2.2173,2.2293,2.226,2.2303,2.2375,2.2415,2.243,2.2443,2.2485,2.2501,2.2312,2.2312,2.2312,0,2.2062,2.2114,2.2084,2.2128,2.2141,2.209,2.2145,2.2152,2.2169,2.2179,2.2146,2.2209,2.2212,2.2282,2.2312,2.2322,2.2336,2.2302,2.243,2.2443,2.2454,2.2494,2.251,2.2317,2.2317,2.2316,2.2316,0,2.2196,2.2233,2.2277,2.2293,2.2311,2.2361,2.2337,2.236,2.2336,2.2326,2.2382,2.2383,2.2408,2.2424,2.2402,2.2491,2.2473,2.2436,2.2378,2.2477,2.2514,2.2529,2.2325,2.2323,2.2321,2.232,0,0,2.2367,2.2365,2.2381,2.2387,2.2392,2.242,2.2466,2.2491,2.251,2.2523,2.2561,2.2605,2.2571,2.2583,2.2561,2.2597,2.2691,2.2556,2.2555,2.2581,2.2789,2.2817,2.2835,2.2669,2.2672,2.2674,2.2788,0,2.2483,2.2562,2.2535,2.2616,2.2649,2.2601,2.2641,2.2648,2.264,2.2667,2.2657,2.2689,2.2641,2.2648,2.2682,2.2673,2.2733,2.2664,2.2704,2.2706,2.2703,2.2854,2.2884,2.2991,2.2802,2.2805,2.2807,0,2.2628,2.2646,2.273,2.2727,2.274,2.2777,2.2797,2.2823,2.283,2.2821,2.2834,2.2805,2.285,2.2792,2.2854,2.2808,2.2822,2.2821,2.2824,2.2827,2.2762,2.2861,2.3025,2.3041,2.2829,2.2827,2.2826,0,2.2744,2.2789,2.2844,2.2851,2.285,2.2877,2.2877,2.2881,2.2897,2.2914,2.2923,2.2946,2.2958,2.2976,2.2953,2.2913,2.3018,2.2959,2.3012,2.3013,2.3037,2.3035,2.3205,2.3047,2.3046,2.3046,2.3046,0,2.2876,2.2929,2.2896,2.293,2.2988,2.2957,2.3015,2.301,2.3013,2.3046,2.3005,2.3036,2.3004,2.3033,2.3015,2.3069,2.3075,2.3069,2.3063,2.3072,2.3073,2.3081,2.3073,2.305,2.3049,2.3048,2.3048,0,2.3014,2.2995,2.3052,2.3045,2.3045,2.3088,2.3082,2.3114,2.3102,2.3143,2.3151,2.3132,2.3163,2.3142,2.3174,2.3162,2.3232,2.3216,2.3229,2.3225,2.328,2.3275,2.3461,2.3483,2.331,2.3312,2.3314,0,2.31,2.3139,2.3137,2.3155,2.3158,2.3189,2.3204,2.3175,2.3193,2.3203,2.3233,2.326,2.3281,2.3333,2.3322,2.3345,2.333,2.3393,2.3333,2.3341,2.333,2.3328,2.3332,2.3406,2.3408,2.3409,2.3411,0,2.3253,2.3241,2.3265,2.3285,2.3305,2.332,2.3331,2.3349,2.3319,2.3341,2.3372,2.3388,2.3419,2.3447,2.3466,2.3466,2.3434,2.343,2.3443,2.3453,2.3459,2.3456,2.3262,2.3426,2.3424,2.3423,2.3422,2.3422,2.3367,2.34,2.3403,2.3431,2.3436,2.3447,2.3476,2.3467,2.3492,2.3515,2.3496,2.3533,2.3538,2.356,2.3565,2.3593,2.3567,2.3587,2.3592,2.3597,2.3604,2.3454,2.3596,2.3596,2.3596,2.3595,2.3595,0,2.3518,2.3517,2.3543,2.356,2.3582,2.3549,2.3559,2.358,2.3612,2.3619,2.364,2.3675,2.3701,2.3692,2.3715,2.374,2.3725,2.3747,2.3745,2.3745,2.3627,2.3612,2.3758,2.3758,2.3758,2.3758,2.3758,2.3758,2.3599,2.3652,2.364,2.3695,2.3694,2.3729,2.3738,2.3748,2.3754,2.3794,2.3816,2.381,2.381,2.3833,2.3855,2.3852,2.3862,2.3889,2.388,2.377,2.3754,2.3738,2.3725,2.3892,2.3892,2.3996,2.3997,2.3998]}]]